Location: Bern�tre
(50.1974°N, 2.0915°E)
Time: 09:30:18
(UTC+00:00)

Cosmos 1805 - Pass Details

Date: 18 September 2020
Orbit: 524 x 531 km, 82.5° (Epoch: 27 October)

Event Time Altitude Azimuth Distance (km) Brightness Sun altitude
Exits shadow 20:36:11 64° 289° (WNW) 595 3.6 -24.5°
Drops below altitude 10° 20:40:02 10° 5° (N) 1,794 6.3 -25.0°
Sets 20:42:13 0° 8° (N) 2,690 7.2 -25.3°
